Hourly Data Report for August 12, 2021

TORONTO CITY
ONTARIO
Current Station Operator: ECCC - MSC

43°40'00.000" N
79°24'00.000" W
112.50 m
6158355
71508
XTO

Download Data

Hourly Data (August 2021)
Hourly Data Report for August 12, 2021
TIME
LST
Temp Definition
°C
Dew Point Definition
°C
Rel Hum Definition
%
Precip. Amount Definition
mm

Wind Dir Definition
10's deg

Wind Spd Definition
km/h
Visibility Definition
km
Stn Press Definition
kPa
Hmdx Definition


Wind Chill Definition


Weather Definition


00:00 23.4 19.1 77 0.0       99.84 30   LegendNANA
01:00 22.8 20.1 85 0.0       99.75 30   LegendNANA
02:00 23.0 19.9 83 0.0       99.65 30   LegendNANA
03:00 23.2 20.3 84 0.0       99.67 31   LegendNANA
04:00 23.3 20.3 83 0.0       99.63 31   LegendNANA
05:00 23.2 20.8 86 0.0       99.68 31   LegendNANA
06:00 23.0 21.1 89 0.5       99.77 32   LegendNANA
07:00 22.5 20.3 88 0.5       99.76 30   LegendNANA
08:00 22.3 19.9 86 0.0       99.76 30   LegendNANA
09:00 22.8 19.7 83 0.0       99.84 30   LegendNANA
10:00 23.6 19.7 79 0.0       99.97 31   LegendNANA
11:00 24.2 19.7 76 0.0       99.99 32   LegendNANA
12:00 25.1 20.4 75 0.0       99.96 33   LegendNANA
13:00 27.1 20.0 65 0.0       99.88 35   LegendNANA
14:00 28.8 21.5 64 0.0       99.87 38   LegendNANA
15:00 29.0 21.8 65 0.0       99.90 38   LegendNANA
16:00 28.6 20.4 61 0.0       99.92 37   LegendNANA
17:00 28.3 20.1 61 0.0       99.88 36   LegendNANA
18:00 28.5 19.8 59 0.0       99.87 36   LegendNANA
19:00 28.3 19.4 59 0.0       99.92 35   LegendNANA
20:00 26.5 19.7 66 0.0       99.94 34   LegendNANA
21:00 25.2 19.3 70 0.0       100.00 32   LegendNANA
22:00 24.9 19.7 73 0.0       100.02 32   LegendNANA
23:00 24.3 21.1 83 0.0       100.06 33   LegendNANA

Notes on Data Quality.

Legend

  • E = Estimated
  • M = Missing
  • NA = Not Available*
  • [empty] = Indicates an unobserved value
Date modified: